Location: Charbonni�res
(45.9952°N, 2.9982°E)
Time: 17:50:11
(UTC+00:00)

FALCON 9 DEB - Pass Details

Date: 29 November 2020
Orbit: 424 x 438 km, 53.0° (Epoch: 22 January)

Event Time Altitude Azimuth Distance (km) Brightness Sun altitude
Exits shadow 06:00:30 15° 317° (NW) 1,282 5.0 -11.3°
Maximum altitude 06:02:52 31° 14° (NNE) 801 4.4 -10.9°
Drops below altitude 10° 06:06:00 10° 78° (ENE) 1,548 6.9 -10.4°
Sets 06:08:16 0° 90° (E) 2,412 8.4 -10.1°
